User: anonymous   Login
Location: Caltech
(34.1382°N, 118.1253°W)
Time: 04:36:37
(UTC-08:00)
Language:

Cosmos 1697 Rocket - Orbit

View from above orbital plane
View from above orbital plane
View from above satellite
View from above satellite

Ground track
Ground track

The orbit data is extracted from the following two-line orbital elements,

1 16182U 85097B   16345.17370487 -.00000259  00000-0 -10648-3 0  9993
2 16182  71.0038  45.7409 0008032 344.0452  37.2004 14.16206440609462
Epoch (UTC): 10 December 2016 04:10:08
Eccentricity: 0.0008032
inclination: 71.0038°
perigee height: 832 km
apogee height: 844 km
right ascension of ascending node: 45.7409°
argument of perigee: 344.0452°
revolutions per day: 14.16206440
mean anomaly at epoch: 37.2004°
orbit number at epoch: 60946

The dashed part of the orbit path shows where the satellite is in the earth's shadow,  

DLR